Location: Gorze? G�rny
(49.8500°N, 19.5000°E)
Time: 13:17:09
(UTC+00:00)

Okean 2 Rocket - Pass Details

Date: 13 May 2021
Orbit: 617 x 641 km, 82.5° (Epoch: 22 June)

Event Time Altitude Azimuth Distance (km) Brightness Sun altitude
Rises 22:19:35 0° 355° (N) 2,905 8.1 -21.4°
Reaches altitude 10° 22:21:55 10° 2° (N) 1,994 6.8 -21.4°
Maximum altitude 22:26:07 43° 74° (ENE) 881 3.9 -21.5°
Enters shadow 22:27:12 36° 111° (ESE) 991 3.9 -21.5°
